Starlink 31855

operational
NORAD ID: 59838 Int'l Des: 2024-097 Owner: SPXS Country: US Constellation: starlink
LEOCIRCULAR

Über Starlink 31855

Beschreibung wird geladen...

Live-Position

3D-Globus wird geladen...

Nächste Überflüge

Höhenverlauf

Altitude vs Time

uPlot chart will show altitude changes over time

Zweizeiliger Elementsatz

1 59838U 24097D 26034.25515299 .00028907 00000-0 10554-2 0 9991
2 59838 43.0025 108.5486 0001485 262.5494 97.5189 15.27595659 96650
Epoch: 3. Feb. 2026 • Age: 26 hours

Aktueller Status

Höhe 493.9 km
Geschwindigkeit 7.62 km/s
Subsatellitenpunkt -39.95°S, 137.1°E
Startdatum 23. Mai 2024
Alter 1.7 years
Typ internet

Technische Details

Klassifizierung Payload
Masse 730.00 kg
Trockenmasse 700.00 kg
Gesamtmasse 730.00 kg
Länge 0.30 m
Durchmesser 4.10 m
Spannweite 29.00 m
Form Box + pan
Hersteller SPXS
Bus-Typ Starlink V2M
Phasenstatus In Orbit
Besitzer/Staat SPXS/US

Große Konstellationen

Loading constellations...